SCP
0 0 0 0 0 0 0 0 0 0 0 0 0 0 0 0 0 0 0 0 0 0 0 0 0 0 0 0 0 0 0 0
0 0 0 0 0 0 0 0 0 0 0 0 0 0 0 0 0 0 0 0 0 0 0 0 0 0 0 0 0 0 0 0
0 0 0 0 0 0 0 0 0 0 0 0 0 0 0 0 0 0 0 0 0 0 0 0 0 0 0 0 0 0 0 0
0 0 0 0 0 0 0 0 0 0 0 0 0 0 0 0 0 0 0 0 0 0 0 0 0 0 0 0 0 0 0 0
0 0 0 0 0 0 0 0 0 0 0 0 0 0 0 0 0 0 0 0 0 0 0 0 0 0 0 0 0 0 0 0
0 0 0 0 0 0 0 0 0 0 0 0 0 0 0 0 0 0 0 0 0 0 0 0 0 0 0 0 0 0 0 0
0 0 0 0 0 0 0 0 0 0 0 0 0 0 0 0 0 0 0 0 0 0 0 0 0 0 0 0 0 0 0 0
0 0 0 0 0 0 0 0 0 0 0 0 0 0 0 0 0 0 0 0 0 0 0 0 0 0 0 0 0 0 0 0
0 0 0 0 0 0 0 0 0 0 0 0 0 0 0 0 0 0 0 0 0 0 0 0 0 0 0 0 0 0 -0 0
0 0 0 0 0 0 0 0 0 0 0 0 0 0 0 0 0 0 0 0 0 0 -0 -0 -0 0 0 0 0 -0 0 0
0 0 0 0 0 0 0 0 0 0 0 0 0 0 0 0 0 0 0 0 0 0 -0 0 0 0 0 -0 -0 0 0 0
0 0 0 0 -0 0 0 0 0 0 0 0 0 0 0 0 0 0 0 0 -0 -0 0 0 0 -0 0 0 0 0 0 0
0 0 0 0 -0 0 0 0 0 0 0 0 0 0 0 0 -0 0 0 0 0 0 0 0 0 0 0 0 0 0 0 0
0 0 0 0 0 -0 0 0 0 0 0 0 0 0 0 0 -0 0 0 0 0 0 0 0 0 0 0 -0 -0 -0 -0 0
0 0 0 0 0 0 0 0 0 -0 -0 -0 0 0 0 0 0 0 0 0 0 0 0 0 0 0 0 0 -0 -0 -0 0
0 0 0 0 0 0 0 0 0 -0 -0 -0 -0 0 0 0 0 0 0 -0 0 0 0 0 0 0 -0 0 0 0 0 0
0 0 0 0 0 0 0 0 0 -0 -0 -0 -0 -0 0 0 0 0 0 0 -0 -0 0 0 -0 -0 0 -0 -0 -0 -0 0
0 0 0 0 0 0 0 0 0 0 -0 -0 -0 0 0 0 0 0 0 0 0 0 0 0 0 0 0 0 0 0 0 0
0 0 0 0 0 0 0 0 0 0 0 -0 0 0 0 0 0 0 0 0 0 0 0 0 0 0 0 0 0 0 0 0
0 0 0 0 0 0 0 0 0 0 0 0 -0 -0 0 0 0 0 0 0 0 0 0 0 -0 -0 -0 -0 0 0 0 0
Wind_Speed_500mb
41 58 57 59 62 56 55 63 73 69 61 60 64 63 67 71 73 74 81 75 72 76 75 79 82 81 81 82 83 86 86 84
47 46 48 55 50 56 64 66 64 66 65 61 62 64 67 67 69 70 71 70 75 73 74 77 64 84 72 72 75 74 80 79
40 42 45 46 51 71 70 63 66 67 64 60 61 63 63 64 65 64 71 69 70 72 75 70 76 77 83 81 72 75 75 79
39 39 42 50 67 73 66 67 67 65 64 62 62 63 63 62 62 63 65 66 65 65 67 66 75 73 79 83 88 94 82 75
36 43 45 65 71 68 67 69 65 64 62 62 64 63 64 62 60 60 60 63 64 64 64 63 71 77 78 79 79 81 75 75
40 44 56 69 74 71 70 69 61 60 59 57 57 56 57 60 63 64 60 62 62 56 58 58 59 63 71 69 68 80 65 77
42 48 59 68 71 72 69 63 57 56 53 52 53 55 57 61 60 56 53 53 45 46 48 52 57 62 64 69 67 70 52 70
44 47 56 63 68 68 65 57 54 51 49 49 50 50 52 52 48 46 41 26 19 27 34 39 45 49 52 52 58 63 57 63
42 45 53 60 64 63 59 52 50 48 47 45 45 45 49 47 43 38 35 28 15 12 19 27 36 38 45 48 46 52 60 58
41 41 51 57 62 61 58 52 49 50 45 43 41 44 42 42 41 36 32 28 19 8 6 15 18 22 28 38 45 45 57 52
38 38 46 53 58 58 55 52 51 48 44 41 38 38 37 34 32 32 33 32 28 14 3 9 7 10 9 26 38 36 57 58
40 37 39 46 53 54 53 52 45 41 39 37 34 31 29 28 26 24 27 35 39 34 23 13 10 9 14 15 21 43 52 42
42 35 33 38 49 51 51 49 42 35 34 33 32 28 25 26 25 27 29 36 41 40 39 30 20 10 4 11 6 26 27 30
45 38 28 28 37 45 46 43 41 32 30 30 29 26 26 28 29 31 33 38 36 38 37 35 21 14 15 15 10 11 13 22
35 39 29 22 23 31 40 37 37 32 26 29 36 34 35 37 35 36 41 35 37 38 40 38 33 31 28 27 23 22 37 45
39 36 34 25 17 18 26 35 36 31 27 31 36 42 47 51 50 51 51 48 50 44 42 42 40 36 36 42 51 57 61 64
49 37 36 31 25 15 15 20 28 28 28 33 37 44 51 54 58 58 57 57 56 55 56 52 45 41 47 51 56 60 63 66
60 42 38 37 32 22 14 9 11 17 22 27 32 38 43 49 52 56 55 58 61 60 57 55 53 51 51 51 53 53 55 63
56 48 43 43 38 31 21 15 5 3 6 12 15 19 22 28 34 38 43 50 52 51 52 50 51 50 47 45 44 47 45 48
59 52 49 48 45 39 30 23 17 11 9 7 8 13 16 18 23 28 36 41 42 39 39 41 40 39 38 34 37 43 44 42
Wind_Direction_500mb
299 308 309 312 313 310 303 298 298 295 294 291 290 287 283 284 279 274 266 264 267 266 260 251 245 240 234 230 231 229 229 226
304 308 311 316 314 306 303 304 302 305 308 303 296 293 294 291 287 283 278 271 262 258 257 249 246 234 231 231 230 230 229 228
308 310 316 316 312 314 319 308 315 319 314 312 309 307 304 298 295 289 284 277 268 260 255 248 245 242 238 235 230 233 232 229
310 316 322 318 322 327 321 318 324 323 318 321 318 316 308 306 303 298 291 284 274 264 255 247 239 236 233 235 240 234 233 232
311 322 323 327 332 329 325 329 329 324 327 328 323 318 317 314 308 301 294 287 277 266 257 250 239 235 237 235 239 229 232 230
321 324 330 338 336 333 332 334 334 332 333 330 327 327 325 323 318 312 300 288 278 266 254 247 237 233 235 233 234 230 236 221
325 327 339 342 337 333 336 339 338 337 335 335 333 333 333 327 326 321 311 299 273 260 253 244 232 231 233 232 237 233 236 217
325 331 342 342 338 334 340 339 341 340 339 339 335 338 334 337 340 342 337 321 284 261 251 241 228 229 230 229 224 229 231 222
323 328 339 344 340 337 344 343 340 346 345 337 335 338 341 346 350 357 2 358 342 283 246 231 224 225 224 225 212 222 230 224
317 322 333 345 342 342 348 346 345 352 344 338 339 339 347 352 355 4 9 8 2 336 244 216 218 220 216 214 223 226 211 224
316 316 328 344 347 348 351 349 352 351 344 342 347 347 355 4 4 20 15 17 17 18 119 193 189 190 159 201 194 207 210 204
317 313 324 340 349 354 355 353 351 353 348 349 355 359 2 13 14 35 42 43 53 60 75 87 131 159 137 196 198 207 192 186
310 306 313 336 350 359 360 356 355 357 356 358 10 14 18 31 38 43 55 63 64 68 78 82 93 101 98 167 190 169 169 173
301 296 300 326 350 2 5 3 7 11 8 18 27 29 41 48 56 59 59 66 69 76 81 85 93 108 107 125 139 136 166 155
286 285 284 298 344 2 14 14 22 24 34 45 53 52 59 64 61 59 63 66 78 83 89 96 100 99 105 106 113 127 136 137
287 277 274 275 302 351 8 23 32 32 47 64 70 70 68 63 60 62 65 69 76 81 89 92 92 100 113 124 134 137 134 131
296 268 267 264 268 286 335 16 37 46 54 67 80 83 84 81 79 74 75 76 78 80 81 85 91 102 108 114 120 125 129 128
303 273 263 254 257 254 272 312 39 49 70 74 80 84 89 93 92 87 83 83 82 85 90 94 101 103 106 112 118 124 126 122
287 269 256 252 248 243 239 254 232 122 95 88 84 84 85 89 92 98 97 93 91 91 92 94 99 101 105 109 114 117 121 122
274 264 249 248 245 238 229 228 230 191 187 160 125 118 108 97 95 96 96 96 95 97 98 98 99 103 106 115 120 124 126 127
Wind_Speed_850mb
41 58 57 59 62 56 55 63 73 69 61 60 64 63 67 71 73 74 81 75 72 76 75 79 82 81 81 82 83 86 86 84
47 46 48 55 50 56 64 66 64 66 65 61 62 64 67 67 69 70 71 70 75 73 74 77 64 84 72 72 75 74 80 79
40 42 45 46 51 71 70 63 66 67 64 60 61 63 63 64 65 64 71 69 70 72 75 70 76 77 83 81 72 75 75 79
39 39 42 50 67 73 66 67 67 65 64 62 62 63 63 62 62 63 65 66 65 65 67 66 75 73 79 83 88 94 82 75
36 43 45 65 71 68 67 69 65 64 62 62 64 63 64 62 60 60 60 63 64 64 64 63 71 77 78 79 79 81 75 75
40 44 56 69 74 71 70 69 61 60 59 57 57 56 57 60 63 64 60 62 62 56 58 58 59 63 71 69 68 80 65 77
42 48 59 68 71 72 69 63 57 56 53 52 53 55 57 61 60 56 53 53 45 46 48 52 57 62 64 69 67 70 52 70
44 47 56 63 68 68 65 57 54 51 49 49 50 50 52 52 48 46 41 26 19 27 34 39 45 49 52 52 58 63 57 63
42 45 53 60 64 63 59 52 50 48 47 45 45 45 49 47 43 38 35 28 15 12 19 27 36 38 45 48 46 52 60 58
41 41 51 57 62 61 58 52 49 50 45 43 41 44 42 42 41 36 32 28 19 8 6 15 18 22 28 38 45 45 57 52
38 38 46 53 58 58 55 52 51 48 44 41 38 38 37 34 32 32 33 32 28 14 3 9 7 10 9 26 38 36 57 58
40 37 39 46 53 54 53 52 45 41 39 37 34 31 29 28 26 24 27 35 39 34 23 13 10 9 14 15 21 43 52 42
42 35 33 38 49 51 51 49 42 35 34 33 32 28 25 26 25 27 29 36 41 40 39 30 20 10 4 11 6 26 27 30
45 38 28 28 37 45 46 43 41 32 30 30 29 26 26 28 29 31 33 38 36 38 37 35 21 14 15 15 10 11 13 22
35 39 29 22 23 31 40 37 37 32 26 29 36 34 35 37 35 36 41 35 37 38 40 38 33 31 28 27 23 22 37 45
39 36 34 25 17 18 26 35 36 31 27 31 36 42 47 51 50 51 51 48 50 44 42 42 40 36 36 42 51 57 61 64
49 37 36 31 25 15 15 20 28 28 28 33 37 44 51 54 58 58 57 57 56 55 56 52 45 41 47 51 56 60 63 66
60 42 38 37 32 22 14 9 11 17 22 27 32 38 43 49 52 56 55 58 61 60 57 55 53 51 51 51 53 53 55 63
56 48 43 43 38 31 21 15 5 3 6 12 15 19 22 28 34 38 43 50 52 51 52 50 51 50 47 45 44 47 45 48
59 52 49 48 45 39 30 23 17 11 9 7 8 13 16 18 23 28 36 41 42 39 39 41 40 39 38 34 37 43 44 42
Wind_Direction_850mb
299 308 309 312 313 310 303 298 298 295 294 291 290 287 283 284 279 274 266 264 267 266 260 251 245 240 234 230 231 229 229 226
304 308 311 316 314 306 303 304 302 305 308 303 296 293 294 291 287 283 278 271 262 258 257 249 246 234 231 231 230 230 229 228
308 310 316 316 312 314 319 308 315 319 314 312 309 307 304 298 295 289 284 277 268 260 255 248 245 242 238 235 230 233 232 229
310 316 322 318 322 327 321 318 324 323 318 321 318 316 308 306 303 298 291 284 274 264 255 247 239 236 233 235 240 234 233 232
311 322 323 327 332 329 325 329 329 324 327 328 323 318 317 314 308 301 294 287 277 266 257 250 239 235 237 235 239 229 232 230
321 324 330 338 336 333 332 334 334 332 333 330 327 327 325 323 318 312 300 288 278 266 254 247 237 233 235 233 234 230 236 221
325 327 339 342 337 333 336 339 338 337 335 335 333 333 333 327 326 321 311 299 273 260 253 244 232 231 233 232 237 233 236 217
325 331 342 342 338 334 340 339 341 340 339 339 335 338 334 337 340 342 337 321 284 261 251 241 228 229 230 229 224 229 231 222
323 328 339 344 340 337 344 343 340 346 345 337 335 338 341 346 350 357 2 358 342 283 246 231 224 225 224 225 212 222 230 224
317 322 333 345 342 342 348 346 345 352 344 338 339 339 347 352 355 4 9 8 2 336 244 216 218 220 216 214 223 226 211 224
316 316 328 344 347 348 351 349 352 351 344 342 347 347 355 4 4 20 15 17 17 18 119 193 189 190 159 201 194 207 210 204
317 313 324 340 349 354 355 353 351 353 348 349 355 359 2 13 14 35 42 43 53 60 75 87 131 159 137 196 198 207 192 186
310 306 313 336 350 359 360 356 355 357 356 358 10 14 18 31 38 43 55 63 64 68 78 82 93 101 98 167 190 169 169 173
301 296 300 326 350 2 5 3 7 11 8 18 27 29 41 48 56 59 59 66 69 76 81 85 93 108 107 125 139 136 166 155
286 285 284 298 344 2 14 14 22 24 34 45 53 52 59 64 61 59 63 66 78 83 89 96 100 99 105 106 113 127 136 137
287 277 274 275 302 351 8 23 32 32 47 64 70 70 68 63 60 62 65 69 76 81 89 92 92 100 113 124 134 137 134 131
296 268 267 264 268 286 335 16 37 46 54 67 80 83 84 81 79 74 75 76 78 80 81 85 91 102 108 114 120 125 129 128
303 273 263 254 257 254 272 312 39 49 70 74 80 84 89 93 92 87 83 83 82 85 90 94 101 103 106 112 118 124 126 122
287 269 256 252 248 243 239 254 232 122 95 88 84 84 85 89 92 98 97 93 91 91 92 94 99 101 105 109 114 117 121 122
274 264 249 248 245 238 229 228 230 191 187 160 125 118 108 97 95 96 96 96 95 97 98 98 99 103 106 115 120 124 126 127